Centralia, IL

2:46 AM CDT on August 21, 2017 (GMT -0500)
Centralia Municipal

Weather History for KENL - October, 2012

Change the Weather History Date:

Tuesday, October 16, 2012

  Actual Average (KSLO) Record (KSLO)
Temperature  
Mean Temperature 62 °F -  
Max Temperature 78 °F 69 °F 87 °F (1963)
Min Temperature 45 °F 46 °F 27 °F (1991)
Degree Days  
Heating Degree Days 4    
Growing Degree Days 12 (Base 50)    
Moisture  
Dew Point 49 °F    
Average Humidity 62    
Maximum Humidity 93    
Minimum Humidity 40    
Precipitation  
Precipitation 0.00 in - - ()
Sea Level Pressure  
Sea Level Pressure 29.82 in    
Wind  
Wind Speed 7 mph (SSE)    
Max Wind Speed 18 mph    
Max Gust Speed 24 mph    
Visibility 10 miles    
Events      
Averages and records for this station are not official NWS values.
T = Trace of Precipitation, MM = Missing Value Source: NWS Daily Summary

Daily Weather History Graph

Daily Weather History Graph

Search for Another Location

Airport or City:

Trip Planner

Search our weather history database for the weather conditions in past years. The results will help you decide how hot, cold, wet, or windy it might be!

Date:

Astronomy

Oct. 16, 2012 Rise Set
Actual Time 7:06 AM CDT 6:16 PM CDT
Civil Twilight 6:40 AM CDT 6:42 PM CDT
Nautical Twilight 6:09 AM CDT 7:13 PM CDT
Astronomical Twilight 5:38 AM CDT 7:44 PM CDT
Moon 8:28 AM CDT (10/16) 7:02 PM CDT (10/16)
Length of Visible Light 12h 02m
Length of Day
11h 09m
New Moon, 2% of the Moon is Illuminated
Oct 16
New Moon
Oct 21
First Quarter
Oct 29
Full
Nov 6
Last Quarter
Nov 13
New

Hourly Weather History & Observations

Time (CDT) Temp. Windchill Dew Point Humidity Pressure Visibility Wind Dir Wind Speed Gust Speed Precip Events Conditions
12:15 AM 45.5 °F - 43.7 °F 93% 29.97 in 10.0 mi Calm Calm - N/A   Clear
12:35 AM 45.9 °F 44.6 °F 43.7 °F 92% 29.97 in 10.0 mi SE 3.5 mph - N/A   Clear
12:55 AM 45.9 °F - 43.7 °F 92% 29.97 in 10.0 mi Calm Calm - N/A   Clear
1:15 AM 47.3 °F - 43.9 °F 88% 29.98 in 10.0 mi Calm Calm - N/A   Clear
1:35 AM 46.6 °F - 42.8 °F 87% 29.97 in 10.0 mi Calm Calm - N/A   Clear
1:55 AM 46.9 °F - 43.3 °F 87% 29.97 in 10.0 mi Calm Calm - N/A   Clear
2:15 AM 47.1 °F - 43.7 °F 88% 29.97 in 10.0 mi Calm Calm - N/A   Clear
2:35 AM 48.4 °F - 44.1 °F 85% 29.96 in 10.0 mi Calm Calm - N/A   Clear
2:55 AM 48.6 °F - 43.9 °F 84% 29.95 in 10.0 mi Calm Calm - N/A   Clear
3:15 AM 49.1 °F - 43.9 °F 82% 29.95 in 10.0 mi ESE 3.5 mph - N/A   Clear
3:35 AM 50.2 °F - 43.7 °F 78% 29.94 in 10.0 mi SE 3.5 mph - N/A   Clear
3:55 AM 51.1 °F - 43.9 °F 76% 29.93 in 10.0 mi SE 4.6 mph - N/A   Clear
4:15 AM 50.5 °F - 43.7 °F 77% 29.93 in 10.0 mi SE 5.8 mph - N/A   Clear
4:35 AM 50.9 °F - 43.7 °F 76% 29.92 in 10.0 mi ESE 4.6 mph - N/A   Clear
4:55 AM 50.7 °F - 43.7 °F 77% 29.92 in 10.0 mi SE 6.9 mph - N/A   Clear
5:15 AM 51.1 °F - 43.9 °F 76% 29.92 in 10.0 mi SE 6.9 mph - N/A   Clear
5:35 AM 51.6 °F - 43.7 °F 74% 29.91 in 10.0 mi ESE 8.1 mph - N/A   Clear
5:55 AM 51.8 °F - 43.7 °F 74% 29.91 in 10.0 mi ESE 8.1 mph - N/A   Clear
6:15 AM 52.0 °F - 43.7 °F 73% 29.90 in 10.0 mi ESE 6.9 mph - N/A   Clear
6:35 AM 51.8 °F - 43.7 °F 74% 29.90 in 10.0 mi East 5.8 mph - N/A   Clear
6:55 AM 51.8 °F - 43.7 °F 74% 29.90 in 10.0 mi ESE 5.8 mph - N/A   Clear
7:15 AM 52.3 °F - 43.7 °F 72% 29.90 in 10.0 mi ESE 6.9 mph - N/A   Clear
7:35 AM 52.7 °F - 44.2 °F 73% 29.90 in 10.0 mi ESE 5.8 mph - N/A   Clear
7:55 AM 54.7 °F - 44.6 °F 69% 29.90 in 10.0 mi SE 6.9 mph - N/A   Clear
8:15 AM 55.4 °F - 45.0 °F 68% 29.90 in 10.0 mi SE 10.4 mph 17.3 mph N/A   Clear
8:35 AM 56.7 °F - 45.7 °F 67% 29.90 in 10.0 mi SE 10.4 mph - N/A   Clear
8:55 AM 58.5 °F - 46.0 °F 63% 29.90 in 10.0 mi SE 12.7 mph - N/A   Clear
9:15 AM 59.9 °F - 46.8 °F 62% 29.90 in 10.0 mi SE 10.4 mph 16.1 mph N/A   Clear
9:35 AM 61.0 °F - 47.5 °F 61% 29.90 in 10.0 mi SSE 10.4 mph 16.1 mph N/A   Clear
9:55 AM 62.4 °F - 48.4 °F 60% 29.90 in 10.0 mi SSE 10.4 mph 16.1 mph N/A   Clear
10:15 AM 63.5 °F - 49.3 °F 60% 29.89 in 10.0 mi SSE 10.4 mph - N/A   Clear
10:35 AM 64.4 °F - 50.2 °F 60% 29.88 in 10.0 mi SSE 11.5 mph 16.1 mph N/A   Clear
10:55 AM 66.0 °F - 50.5 °F 57% 29.88 in 10.0 mi SSE 12.7 mph - N/A   Clear
11:15 AM 67.1 °F - 51.3 °F 57% 29.86 in 10.0 mi SSE 11.5 mph - N/A   Clear
11:35 AM 68.2 °F - 51.6 °F 55% 29.85 in 10.0 mi SSE 9.2 mph - N/A   Clear
11:55 AM 69.3 °F - 52.3 °F 55% 29.84 in 10.0 mi SSE 9.2 mph - N/A   Clear
12:15 PM 70.7 °F - 52.7 °F 53% 29.84 in 10.0 mi SSE 10.4 mph - N/A   Clear
12:35 PM 71.8 °F - 53.4 °F 52% 29.82 in 10.0 mi SSE 11.5 mph 16.1 mph N/A   Clear
12:55 PM 72.7 °F - 53.6 °F 51% 29.80 in 10.0 mi SSE 12.7 mph 17.3 mph N/A   Clear
1:15 PM 74.1 °F - 53.8 °F 49% 29.79 in 10.0 mi South 11.5 mph - N/A   Clear
1:35 PM 74.5 °F - 53.8 °F 48% 29.78 in 10.0 mi SSE 11.5 mph - N/A   Clear
1:55 PM 74.3 °F - 53.6 °F 48% 29.76 in 10.0 mi South 9.2 mph 18.4 mph N/A   Clear
2:15 PM 76.6 °F - 53.1 °F 44% 29.75 in 10.0 mi South 9.2 mph - N/A   Clear
2:35 PM 77.0 °F - 53.2 °F 44% 29.74 in 10.0 mi South 13.8 mph 17.3 mph N/A   Clear
2:55 PM 77.0 °F - 53.6 °F 44% 29.74 in 10.0 mi South 12.7 mph 21.9 mph N/A   Clear
3:15 PM 77.0 °F - 52.9 °F 43% 29.73 in 10.0 mi SSE 15.0 mph - N/A   Scattered Clouds
3:35 PM 78.1 °F - 53.2 °F 42% 29.72 in 10.0 mi South 12.7 mph 19.6 mph N/A   Scattered Clouds
3:55 PM 77.5 °F - 51.4 °F 40% 29.71 in 10.0 mi South 18.4 mph 24.2 mph N/A   Clear
4:15 PM 77.7 °F - 52.5 °F 41% 29.70 in 10.0 mi South 15.0 mph - N/A   Clear
4:35 PM 77.4 °F - 51.6 °F 41% 29.69 in 10.0 mi South 16.1 mph 19.6 mph N/A   Clear
4:55 PM 76.5 °F - 52.0 °F 42% 29.69 in 10.0 mi South 13.8 mph 23.0 mph N/A   Clear
5:15 PM 76.1 °F - 52.7 °F 44% 29.69 in 10.0 mi South 12.7 mph 18.4 mph N/A   Clear
5:35 PM 74.1 °F - 52.2 °F 46% 29.68 in 10.0 mi South 15.0 mph - N/A   Clear
5:55 PM 72.9 °F - 52.2 °F 48% 29.68 in 10.0 mi South 9.2 mph 18.4 mph N/A   Clear
6:15 PM 71.6 °F - 52.2 °F 50% 29.68 in 10.0 mi South 11.5 mph 17.3 mph N/A   Clear
6:35 PM 70.9 °F - 52.2 °F 51% 29.69 in 10.0 mi South 10.4 mph 17.3 mph N/A   Clear
6:55 PM 70.9 °F - 52.2 °F 51% 29.69 in 10.0 mi South 11.5 mph - N/A   Clear
7:15 PM 70.5 °F - 52.2 °F 52% 29.69 in 10.0 mi South 12.7 mph 19.6 mph N/A   Clear
7:35 PM 69.8 °F - 52.2 °F 53% 29.69 in 10.0 mi South 11.5 mph - N/A   Clear
7:55 PM 70.0 °F - 51.3 °F 51% 29.69 in 10.0 mi South 15.0 mph 21.9 mph N/A   Clear
8:15 PM 69.8 °F - 51.1 °F 51% 29.70 in 10.0 mi South 13.8 mph 19.6 mph N/A   Clear
8:35 PM 69.3 °F - 50.4 °F 51% 29.69 in 10.0 mi South 11.5 mph 19.6 mph N/A   Clear
8:55 PM 68.4 °F - 50.9 °F 54% 29.70 in 10.0 mi South 15.0 mph 18.4 mph N/A   Clear
9:15 PM 67.3 °F - 50.4 °F 55% 29.70 in 10.0 mi South 13.8 mph 19.6 mph N/A   Clear
9:35 PM 67.5 °F - 49.5 °F 52% 29.70 in 10.0 mi South 13.8 mph 20.7 mph N/A   Clear
9:55 PM 67.1 °F - 48.6 °F 51% 29.71 in 10.0 mi South 15.0 mph 19.6 mph N/A   Clear
10:15 PM 66.2 °F - 49.1 °F 54% 29.71 in 10.0 mi South 13.8 mph 18.4 mph N/A   Clear
10:35 PM 65.3 °F - 50.2 °F 58% 29.71 in 10.0 mi South 11.5 mph - N/A   Clear
10:55 PM 64.6 °F - 50.5 °F 60% 29.71 in 10.0 mi South 12.7 mph - N/A   Clear
11:15 PM 63.5 °F - 50.5 °F 63% 29.72 in 10.0 mi South 10.4 mph - N/A   Clear
11:35 PM 63.5 °F - 50.0 °F 61% 29.71 in 10.0 mi South 11.5 mph - N/A   Clear
11:55 PM 64.0 °F - 49.6 °F 59% 29.71 in 10.0 mi South 11.5 mph 20.7 mph N/A   Clear